When you browse on this site, cookies collect data to enhance your experience and personalize the content and advertising you see.
Visit our Privacy Policy to learn more. By continuing to use the site, you agree to this use of cookies and data.
  • en Suisse
  • Liste des pays
  • À 7 jours
  • Température de l'eau
  • Carte météo
  • Widgets météo
  • user-avatar
    Se connecter

    Météo par heure à Brégence

    Ce jour, 26 Août, Lundi

    Heure Température Précipitation Vent Pression Humidité
    00:00 +11°C° 0 mm 1 m/s 650 mmHg 80%
    01:00 +11°C° 0 mm 1 m/s 650 mmHg 80%
    02:00 +11°C° 0 mm 1 m/s 649 mmHg 80%
    03:00 +11°C° 0 mm 1 m/s 649 mmHg 79%
    04:00 +10°C° 0 mm 1 m/s 649 mmHg 79%
    05:00 +11°C° 0 mm 1 m/s 649 mmHg 79%
    06:00 +12°C° 0 mm 1 m/s 650 mmHg 78%
    07:00 +13°C° 0 mm 1 m/s 650 mmHg 77%
    08:00 +15°C° 0 mm 1 m/s 650 mmHg 70%
    09:00 +18°C° 0 mm 1 m/s 651 mmHg 62%
    10:00 +21°C° 0 mm 1 m/s 652 mmHg 55%
    11:00 +21°C° 0 mm 1 m/s 652 mmHg 52%
    12:00 +22°C° 0 mm 1 m/s 652 mmHg 50%
    13:00 +23°C° 0 mm 1 m/s 652 mmHg 47%
    14:00 +23°C° 0 mm 1 m/s 652 mmHg 49%
    15:00 +23°C° 0 mm 1 m/s 651 mmHg 51%
    16:00 +23°C° 0 mm 1 m/s 651 mmHg 52%
    17:00 +20°C° 0 mm 1 m/s 651 mmHg 61%
    18:00 +16°C° 0 mm 0 m/s 650 mmHg 70%
    19:00 +14°C° 0 mm 0 m/s 649 mmHg 78%
    20:00 +14°C° 0 mm 1 m/s 649 mmHg 79%
    21:00 +14°C° 0 mm 1 m/s 649 mmHg 80%
    22:00 +13°C° 0 mm 1 m/s 649 mmHg 81%
    23:00 +13°C° 0 mm 1 m/s 649 mmHg 81%

    Demain, 27 Août, Mardi

    Heure Température Précipitation Vent Pression Humidité
    00:00 +12°C° 0 mm 1 m/s 649 mmHg 81%
    01:00 +12°C° 0 mm 1 m/s 649 mmHg 80%
    02:00 +12°C° 0 mm 1 m/s 649 mmHg 80%
    03:00 +12°C° 0 mm 1 m/s 649 mmHg 80%
    04:00 +12°C° 0 mm 1 m/s 649 mmHg 80%
    05:00 +12°C° 0 mm 1 m/s 649 mmHg 80%
    06:00 +13°C° 0 mm 1 m/s 649 mmHg 79%
    07:00 +14°C° 0 mm 1 m/s 650 mmHg 78%
    08:00 +16°C° 0 mm 1 m/s 650 mmHg 71%
    09:00 +20°C° 0 mm 1 m/s 651 mmHg 63%
    10:00 +20°C° 0 mm 0 m/s 652 mmHg 55%
    11:00 +23°C° 0 mm 1 m/s 652 mmHg 52%
    12:00 +24°C° 0 mm 1 m/s 652 mmHg 49%
    13:00 +24°C° 0 mm 1 m/s 652 mmHg 46%
    14:00 +24°C° 0 mm 1 m/s 652 mmHg 48%
    15:00 +24°C° 0 mm 1 m/s 652 mmHg 49%
    16:00 +24°C° 0 mm 1 m/s 651 mmHg 51%
    17:00 +22°C° 0 mm 1 m/s 651 mmHg 60%
    18:00 +20°C° 0 mm 1 m/s 650 mmHg 68%
    19:00 +16°C° 0 mm 0 m/s 650 mmHg 76%
    20:00 +16°C° 0 mm 1 m/s 650 mmHg 76%
    21:00 +15°C° 0 mm 1 m/s 650 mmHg 75%
    22:00 +15°C° 0 mm 1 m/s 650 mmHg 74%
    23:00 +15°C° 0 mm 1 m/s 650 mmHg 74%

    Après-demain, 28 Août, Mercredi

    Heure Température Précipitation Vent Pression Humidité
    00:00 +14°C° 0 mm 1 m/s 650 mmHg 75%
    01:00 +14°C° 0 mm 1 m/s 650 mmHg 75%
    02:00 +14°C° 0 mm 1 m/s 650 mmHg 75%
    03:00 +14°C° 0 mm 1 m/s 649 mmHg 76%
    04:00 +14°C° 0 mm 1 m/s 649 mmHg 76%
    05:00 +14°C° 0 mm 1 m/s 649 mmHg 77%
    06:00 +15°C° 0 mm 1 m/s 649 mmHg 77%
    07:00 +15°C° 0 mm 1 m/s 650 mmHg 78%
    08:00 +18°C° 0 mm 1 m/s 650 mmHg 72%
    09:00 +20°C° 0 mm 1 m/s 651 mmHg 66%
    10:00 +22°C° 0 mm 1 m/s 651 mmHg 59%
    11:00 +22°C° 0.1 mm 1 m/s 651 mmHg 59%
    12:00 +23°C° 0.1 mm 1 m/s 651 mmHg 58%
    13:00 +23°C° 0.1 mm 1 m/s 651 mmHg 57%
    14:00 +23°C° 0.4 mm 1 m/s 651 mmHg 62%
    15:00 +23°C° 0.4 mm 1 m/s 651 mmHg 66%
    16:00 +22°C° 0.4 mm 1 m/s 650 mmHg 71%
    17:00 +21°C° 0.8 mm 1 m/s 650 mmHg 75%
    18:00 +19°C° 0.8 mm 1 m/s 650 mmHg 80%
    19:00 +15°C° 0.8 mm 0 m/s 649 mmHg 85%
    20:00 +16°C° 1 mm 1 m/s 649 mmHg 87%
    21:00 +15°C° 1 mm 1 m/s 649 mmHg 89%
    22:00 +14°C° 1 mm 2 m/s 649 mmHg 91%
    23:00 +14°C° 0.2 mm 2 m/s 649 mmHg 90%

    29 Août, Jeudi

    Heure Température Précipitation Vent Pression Humidité
    00:00 +13°C° 0.2 mm 1 m/s 649 mmHg 90%
    01:00 +13°C° 0.2 mm 1 m/s 649 mmHg 90%
    02:00 +13°C° 0.1 mm 1 m/s 649 mmHg 89%
    03:00 +12°C° 0.1 mm 1 m/s 648 mmHg 89%
    04:00 +12°C° 0.1 mm 1 m/s 648 mmHg 88%
    05:00 +13°C° 0 mm 1 m/s 649 mmHg 88%
    06:00 +13°C° 0 mm 1 m/s 649 mmHg 87%
    07:00 +14°C° 0 mm 1 m/s 649 mmHg 87%
    08:00 +16°C° 0.1 mm 1 m/s 650 mmHg 81%
    09:00 +19°C° 0.1 mm 1 m/s 651 mmHg 74%
    10:00 +20°C° 0.1 mm 1 m/s 651 mmHg 68%
    11:00 +20°C° 0.9 mm 1 m/s 651 mmHg 71%
    12:00 +20°C° 0.9 mm 1 m/s 651 mmHg 73%
    13:00 +20°C° 0.9 mm 2 m/s 651 mmHg 76%
    14:00 +19°C° 1.2 mm 2 m/s 651 mmHg 77%
    15:00 +20°C° 1.2 mm 1 m/s 651 mmHg 78%
    16:00 +20°C° 1.2 mm 1 m/s 651 mmHg 80%
    17:00 +19°C° 1 mm 1 m/s 651 mmHg 83%
    18:00 +16°C° 1 mm 1 m/s 651 mmHg 86%
    19:00 +15°C° 1 mm 1 m/s 650 mmHg 89%
    20:00 +14°C° 0.4 mm 1 m/s 650 mmHg 90%
    21:00 +13°C° 0.4 mm 1 m/s 650 mmHg 91%
    22:00 +13°C° 0.4 mm 1 m/s 650 mmHg 92%
    23:00 +12°C° 0 mm 1 m/s 650 mmHg 92%

    30 Août, Vendredi

    Heure Température Précipitation Vent Pression Humidité
    00:00 +12°C° 0 mm 1 m/s 650 mmHg 93%
    01:00 +12°C° 0 mm 1 m/s 650 mmHg 93%
    02:00 +11°C° 0 mm 1 m/s 650 mmHg 93%
    03:00 +11°C° 0 mm 1 m/s 650 mmHg 94%
    04:00 +11°C° 0 mm 1 m/s 650 mmHg 94%
    05:00 +11°C° 0 mm 1 m/s 650 mmHg 93%
    06:00 +12°C° 0 mm 1 m/s 650 mmHg 93%
    07:00 +12°C° 0 mm 0 m/s 650 mmHg 93%
    08:00 +14°C° 0 mm 1 m/s 651 mmHg 87%
    09:00 +16°C° 0 mm 1 m/s 651 mmHg 82%
    10:00 +18°C° 0 mm 1 m/s 652 mmHg 76%
    11:00 +19°C° 0.1 mm 1 m/s 652 mmHg 74%
    12:00 +20°C° 0.1 mm 1 m/s 652 mmHg 71%
    13:00 +20°C° 0.1 mm 2 m/s 652 mmHg 68%
    14:00 +19°C° 0.3 mm 2 m/s 651 mmHg 71%
    15:00 +20°C° 0.3 mm 1 m/s 651 mmHg 74%
    16:00 +20°C° 0.3 mm 1 m/s 651 mmHg 76%
    17:00 +19°C° 0.4 mm 1 m/s 651 mmHg 82%
    18:00 +16°C° 0.4 mm 1 m/s 650 mmHg 87%
    19:00 +15°C° 0.4 mm 1 m/s 650 mmHg 92%
    20:00 +15°C° 0.2 mm 1 m/s 650 mmHg 92%
    21:00 +14°C° 0.2 mm 1 m/s 650 mmHg 92%
    22:00 +13°C° 0.2 mm 1 m/s 649 mmHg 92%
    23:00 +13°C° 0 mm 1 m/s 649 mmHg 92%

    31 Août, Samedi

    Heure Température Précipitation Vent Pression Humidité
    00:00 +12°C° 0 mm 1 m/s 649 mmHg 92%
    01:00 +12°C° 0 mm 1 m/s 649 mmHg 91%
    02:00 +12°C° 0 mm 1 m/s 648 mmHg 90%
    03:00 +12°C° 0 mm 1 m/s 648 mmHg 90%
    04:00 +12°C° 0 mm 1 m/s 648 mmHg 89%
    05:00 +12°C° 0 mm 1 m/s 648 mmHg 88%
    06:00 +13°C° 0 mm 1 m/s 649 mmHg 87%
    07:00 +13°C° 0 mm 1 m/s 649 mmHg 87%
    08:00 +15°C° 0 mm 1 m/s 649 mmHg 80%
    09:00 +18°C° 0 mm 1 m/s 650 mmHg 74%
    10:00 +19°C° 0 mm 1 m/s 651 mmHg 67%
    11:00 +20°C° 0.3 mm 1 m/s 650 mmHg 68%
    12:00 +20°C° 0.3 mm 1 m/s 650 mmHg 69%
    13:00 +21°C° 0.3 mm 1 m/s 650 mmHg 70%
    14:00 +20°C° 1.2 mm 1 m/s 650 mmHg 74%
    15:00 +20°C° 1.2 mm 1 m/s 650 mmHg 78%
    16:00 +20°C° 1.2 mm 1 m/s 650 mmHg 82%
    17:00 +18°C° 1.1 mm 1 m/s 649 mmHg 84%
    18:00 +15°C° 1.1 mm 0 m/s 649 mmHg 86%
    19:00 +14°C° 1.1 mm 0 m/s 649 mmHg 88%
    20:00 +13°C° 0.1 mm 0 m/s 649 mmHg 89%
    21:00 +14°C° 0.1 mm 1 m/s 649 mmHg 89%
    22:00 +13°C° 0.1 mm 1 m/s 649 mmHg 89%
    23:00 +13°C° 0 mm 1 m/s 649 mmHg 89%
    Voir plus